Weather History for KCIU - October, 2013

Change the Weather History Date:

Wednesday, October 2, 2013

  Actual Average (KANJ) Record (KANJ)
Temperature  
Mean Temperature 58 °F 51 °F  
Max Temperature 69 °F 60 °F 81 °F (1922)
Min Temperature 48 °F 42 °F 25 °F (1974)
Degree Days  
Heating Degree Days 6 14  
Month to date heating degree days 28  
Since 1 July heating degree days 429  
Cooling Degree Days 0 0  
Month to date cooling degree days 0  
Year to date cooling degree days 195  
Growing Degree Days 8 (Base 50)    
Moisture  
Dew Point 43 °F    
Average Humidity 63    
Maximum Humidity 100    
Minimum Humidity 28    
Precipitation  
Precipitation 0.00 in 0.13 in 0.56 in (2009)
Month to date precipitation 0.26  
Year to date precipitation 23.25  
Snow  
Snow 0.00 in 0.00 in 0.50 in (1993)
Month to date snowfall 0.0  
Since 1 July snowfall T  
Snow Depth -    
Sea Level Pressure  
Sea Level Pressure 29.98 in    
Wind  
Wind Speed 7 mph (West)    
Max Wind Speed 20 mph    
Max Gust Speed 30 mph    
Visibility 9 miles    
Events      
T = Trace of Precipitation, MM = Missing Value Source: NWS Daily Summary

Daily Weather History Graph

Daily Weather History Graph

Search for Another Location

Airport or City:

Trip Planner

Search our weather history database for the weather conditions in past years. The results will help you decide how hot, cold, wet, or windy it might be!

Date:

Astronomy

Oct. 02, 2013 Rise Set
Actual Time 7:38 AM EDT 7:15 PM EDT
Civil Twilight 7:08 AM EDT 7:45 PM EDT
Nautical Twilight 6:33 AM EDT 8:20 PM EDT
Astronomical Twilight 5:57 AM EDT 8:55 PM EDT
Moon 5:03 AM EDT (10/2) 5:55 PM EDT (10/2)
Length of Visible Light 12h 37m
Length of Day
11h 37m
Waning Crescent, 6% of the Moon is Illuminated
Oct 2
Waning Crescent
Oct 4
New
Oct 11
First Quarter
Oct 18
Full
Oct 26
Last Quarter

Hourly Weather History & Observations

Time (EDT) Temp. Dew Point Humidity Pressure Visibility Wind Dir Wind Speed Gust Speed Precip Events Conditions
12:15 AM 59.0 °F 57.2 °F 94% 29.81 in 0.5 mi SW 3.5 mph - N/A   Mostly Cloudy
12:35 AM 59.0 °F 59.0 °F 100% 29.82 in 0.2 mi WSW 4.6 mph - N/A   Overcast
12:55 AM 57.2 °F 57.2 °F 100% 29.83 in 0.2 mi WSW 4.6 mph - N/A   Overcast
1:35 AM 55.4 °F 55.4 °F 100% 29.84 in 4.0 mi WSW 3.5 mph - N/A   Mostly Cloudy
1:55 AM 55.4 °F 55.4 °F 100% 29.85 in 4.0 mi Calm Calm - N/A   Clear
2:15 AM 55.4 °F 53.6 °F 94% 29.85 in 0.5 mi SW 3.5 mph - N/A   Overcast
2:35 AM 55.4 °F 55.4 °F 100% 29.86 in 4.0 mi SW 4.6 mph - N/A   Scattered Clouds
2:55 AM 55.4 °F 53.6 °F 94% 29.86 in 10.0 mi West 6.9 mph - N/A   Clear
3:15 AM 53.6 °F 51.8 °F 94% 29.87 in 10.0 mi West 6.9 mph - N/A   Clear
3:35 AM 53.6 °F 50.0 °F 88% 29.87 in 10.0 mi WSW 5.8 mph - N/A   Clear
3:55 AM 51.8 °F 48.2 °F 88% 29.88 in 10.0 mi WSW 6.9 mph - N/A   Clear
4:15 AM 51.8 °F 48.2 °F 88% 29.88 in 10.0 mi WSW 5.8 mph - N/A   Clear
4:35 AM 51.8 °F 46.4 °F 82% 29.89 in 10.0 mi WSW 5.8 mph - N/A   Clear
4:55 AM 51.8 °F 46.4 °F 82% 29.90 in 10.0 mi WSW 6.9 mph - N/A   Clear
5:15 AM 50.0 °F 46.4 °F 87% 29.90 in 10.0 mi WSW 5.8 mph - N/A   Clear
5:35 AM 48.2 °F 44.6 °F 87% 29.91 in 10.0 mi West 8.1 mph - N/A   Clear
5:55 AM 48.2 °F 44.6 °F 87% 29.91 in 10.0 mi West 8.1 mph - N/A   Clear
6:15 AM 48.2 °F 42.8 °F 82% 29.92 in 10.0 mi West 8.1 mph - N/A   Clear
6:35 AM 48.2 °F 42.8 °F 82% 29.92 in 10.0 mi WSW 6.9 mph - N/A   Clear
6:55 AM 48.2 °F 42.8 °F 82% 29.93 in 10.0 mi WSW 4.6 mph - N/A   Clear
7:15 AM 48.2 °F 42.8 °F 82% 29.94 in 10.0 mi WSW 5.8 mph - N/A   Clear
7:35 AM 48.2 °F 42.8 °F 82% 29.94 in 10.0 mi WSW 6.9 mph - N/A   Clear
7:55 AM 48.2 °F 42.8 °F 82% 29.95 in 10.0 mi West 6.9 mph - N/A   Clear
8:15 AM 48.2 °F 42.8 °F 82% 29.96 in 10.0 mi West 8.1 mph - N/A   Clear
8:35 AM 48.2 °F 42.8 °F 82% 29.96 in 10.0 mi West 9.2 mph - N/A   Clear
8:55 AM 50.0 °F 42.8 °F 76% 29.97 in 10.0 mi West 8.1 mph - N/A   Clear
9:15 AM 51.8 °F 42.8 °F 71% 29.97 in 10.0 mi West 11.5 mph - N/A   Clear
9:35 AM 53.6 °F 44.6 °F 72% 29.98 in 10.0 mi West 10.4 mph - N/A   Clear
9:55 AM 55.4 °F 44.6 °F 67% 29.99 in 10.0 mi West 10.4 mph 16.1 mph N/A   Clear
10:15 AM 57.2 °F 44.6 °F 63% 29.99 in 10.0 mi West 10.4 mph - N/A   Clear
10:35 AM 60.8 °F 44.6 °F 55% 30.00 in 7.0 mi West 11.5 mph - N/A   Clear
10:55 AM 62.6 °F 44.6 °F 52% 30.00 in 10.0 mi West 12.7 mph 19.6 mph N/A   Clear
11:15 AM 64.4 °F 42.8 °F 45% 30.01 in 10.0 mi West 13.8 mph 18.4 mph N/A   Clear
11:35 AM 64.4 °F 41.0 °F 42% 30.01 in 10.0 mi WNW 15.0 mph 23.0 mph N/A   Clear
11:55 AM 64.4 °F 39.2 °F 40% 30.01 in 10.0 mi West 13.8 mph 21.9 mph N/A   Clear
12:15 PM 66.2 °F 39.2 °F 37% 30.02 in 10.0 mi West 13.8 mph 21.9 mph N/A   Clear
12:35 PM 66.2 °F 39.2 °F 37% 30.01 in 9.0 mi WNW 11.5 mph 17.3 mph N/A   Clear
12:55 PM 66.2 °F 39.2 °F 37% 30.02 in 10.0 mi West 13.8 mph 17.3 mph N/A   Clear
1:15 PM 68.0 °F 39.2 °F 35% 30.02 in 10.0 mi WNW 15.0 mph 19.6 mph N/A   Clear
1:35 PM 69.8 °F 37.4 °F 31% 30.02 in 10.0 mi WNW 17.3 mph 25.3 mph N/A   Clear
1:55 PM 69.8 °F 37.4 °F 31% 30.01 in 10.0 mi NW 19.6 mph 24.2 mph N/A   Clear
2:15 PM 68.0 °F 33.8 °F 28% 30.02 in 9.0 mi NW 19.6 mph 27.6 mph N/A   Clear
2:35 PM 68.0 °F 33.8 °F 28% 30.02 in 10.0 mi NW 18.4 mph 25.3 mph N/A   Clear
2:55 PM 69.8 °F 35.6 °F 28% 30.02 in 10.0 mi WNW 15.0 mph 23.0 mph N/A   Clear
3:15 PM 68.0 °F 33.8 °F 28% 30.02 in 10.0 mi NW 19.6 mph 29.9 mph N/A   Clear
3:35 PM 68.0 °F 35.6 °F 30% 30.02 in 10.0 mi NW 16.1 mph 27.6 mph N/A   Clear
3:55 PM 68.0 °F 35.6 °F 30% 30.03 in 10.0 mi NW 15.0 mph 20.7 mph N/A   Clear
4:15 PM 68.0 °F 35.6 °F 30% 30.03 in 10.0 mi NW 15.0 mph 27.6 mph N/A   Clear
4:35 PM 68.0 °F 33.8 °F 28% 30.03 in 10.0 mi NW 17.3 mph 23.0 mph N/A   Clear
4:55 PM 68.0 °F 33.8 °F 28% 30.03 in 10.0 mi NW 16.1 mph 23.0 mph N/A   Clear
5:15 PM 68.0 °F 35.6 °F 30% 30.04 in 10.0 mi NW 12.7 mph 20.7 mph N/A   Clear
5:35 PM 68.0 °F 35.6 °F 30% 30.03 in 10.0 mi NW 10.4 mph - N/A   Clear
5:55 PM 66.2 °F 35.6 °F 32% 30.03 in 10.0 mi NNW 8.1 mph - N/A   Clear
6:15 PM 66.2 °F 35.6 °F 32% 30.03 in 10.0 mi NW 8.1 mph - N/A   Clear
6:35 PM 64.4 °F 37.4 °F 37% 30.04 in 10.0 mi NW 5.8 mph - N/A   Clear
6:55 PM 64.4 °F 39.2 °F 40% 30.04 in 10.0 mi Calm Calm - N/A   Clear
7:15 PM 60.8 °F 41.0 °F 48% 30.04 in 10.0 mi Calm Calm - N/A   Clear
7:35 PM 57.2 °F 42.8 °F 59% 30.05 in 10.0 mi South 5.8 mph - N/A   Clear
7:55 PM 60.8 °F 39.2 °F 45% 30.04 in 10.0 mi SW 3.5 mph - N/A   Clear
8:15 PM 60.8 °F 42.8 °F 52% 30.04 in 10.0 mi SSW 4.6 mph - N/A   Clear
8:35 PM 57.2 °F 42.8 °F 59% 30.05 in 10.0 mi South 3.5 mph - N/A   Clear
8:55 PM 57.2 °F 42.8 °F 59% 30.05 in 10.0 mi SSW 4.6 mph - N/A   Clear
9:15 PM 57.2 °F 42.8 °F 59% 30.05 in 10.0 mi SSW 4.6 mph - N/A   Clear
9:35 PM 55.4 °F 44.6 °F 67% 30.05 in 10.0 mi SSW 4.6 mph - N/A   Clear
9:55 PM 55.4 °F 44.6 °F 67% 30.06 in 10.0 mi SW 4.6 mph - N/A   Clear
10:15 PM 53.6 °F 44.6 °F 72% 30.07 in 10.0 mi SW 3.5 mph - N/A   Clear
10:35 PM 53.6 °F 46.4 °F 77% 30.07 in 10.0 mi SW 3.5 mph - N/A   Clear
10:55 PM 53.6 °F 46.4 °F 77% 30.07 in 10.0 mi SW 3.5 mph - N/A   Clear
11:15 PM 53.6 °F 46.4 °F 77% 30.07 in 10.0 mi SW 3.5 mph - N/A   Clear
11:35 PM 53.6 °F 48.2 °F 82% 30.07 in 10.0 mi SSW 4.6 mph - N/A   Clear
11:55 PM 51.8 °F 48.2 °F 88% 30.07 in 10.0 mi SW 3.5 mph - N/A   Clear